TimePDT,TemperatureF,Dew PointF,Humidity,Sea Level PressureIn,VisibilityMPH,Wind Direction,Wind SpeedMPH,Gust SpeedMPH,PrecipitationIn,Events,Conditions,WindDirDegrees,DateUTC
12:52 AM,52.0,44.1,74,30.01,10.0,SW,3.5,-,N/A,,Clear,220,2012-06-27 07:52:00
1:52 AM,52.0,44.1,74,30.01,10.0,SW,6.9,-,N/A,,Clear,220,2012-06-27 08:52:00
2:52 AM,51.1,42.1,71,30.01,10.0,WSW,4.6,-,N/A,,Clear,240,2012-06-27 09:52:00
3:52 AM,48.0,42.1,80,30.02,10.0,South,4.6,-,N/A,,Clear,170,2012-06-27 10:52:00
4:52 AM,51.1,41.0,68,30.02,10.0,SW,6.9,-,N/A,,Clear,230,2012-06-27 11:52:00
5:52 AM,46.9,42.1,83,30.04,10.0,SSE,6.9,-,N/A,,Clear,150,2012-06-27 12:52:00
6:52 AM,52.0,45.0,77,30.05,10.0,SSE,4.6,-,N/A,,Clear,160,2012-06-27 13:52:00
7:52 AM,55.9,42.1,60,30.06,10.0,SSW,9.2,-,N/A,,Clear,200,2012-06-27 14:52:00
8:52 AM,59.0,43.0,55,30.06,10.0,SSW,10.4,-,N/A,,Clear,210,2012-06-27 15:52:00
9:52 AM,62.1,42.1,48,30.06,10.0,South,11.5,-,N/A,,Clear,180,2012-06-27 16:52:00
10:52 AM,64.0,44.1,48,30.06,10.0,SSE,11.5,20.7,N/A,,Clear,160,2012-06-27 17:52:00
11:52 AM,66.0,44.1,45,30.06,10.0,SW,10.4,18.4,N/A,,Clear,220,2012-06-27 18:52:00
12:52 PM,66.9,39.0,36,30.04,10.0,Variable,3.5,-,N/A,,Clear,0,2012-06-27 19:52:00
1:52 PM,69.1,42.1,38,30.03,10.0,SSW,5.8,-,N/A,,Clear,200,2012-06-27 20:52:00
2:52 PM,71.1,42.1,35,30.01,10.0,Variable,6.9,-,N/A,,Clear,0,2012-06-27 21:52:00
3:52 PM,71.1,44.1,38,30.01,10.0,Variable,5.8,-,N/A,,Clear,0,2012-06-27 22:52:00
4:52 PM,72.0,44.1,37,29.98,10.0,SSE,4.6,-,N/A,,Clear,160,2012-06-27 23:52:00
5:52 PM,72.0,41.0,33,29.97,10.0,SE,3.5,-,N/A,,Clear,140,2012-06-28 00:52:00
6:52 PM,73.0,42.1,33,29.96,10.0,Calm,Calm,-,N/A,,Clear,0,2012-06-28 01:52:00
7:52 PM,72.0,42.1,34,29.94,10.0,East,3.5,-,N/A,,Clear,80,2012-06-28 02:52:00
8:52 PM,66.9,45.0,45,29.94,10.0,NE,3.5,-,N/A,,Clear,40,2012-06-28 03:52:00
9:52 PM,62.1,46.9,58,29.94,10.0,North,4.6,-,N/A,,Clear,10,2012-06-28 04:52:00
10:52 PM,60.1,46.9,62,29.95,10.0,North,5.8,-,N/A,,Clear,10,2012-06-28 05:52:00
11:52 PM,57.9,48.0,70,29.95,10.0,NNE,6.9,-,N/A,,Clear,20,2012-06-28 06:52:00